Location: Brahman Valley
(40.6513°N, 111.8855°W)
Time: 07:34:59
(UTC+00:00)

Tiros 1 despin weight - Pass Details

Date: 19 May 2021
Orbit: 594 x 641 km, 48.2° (Epoch: 22 June)

Event Time Altitude Azimuth Distance (km) Brightness Sun altitude
Rises 02:46:23 0° 264° (W) 2,908 ? -1.7°
Reaches altitude 10° 02:48:47 10° 271° (W) 2,009 ? -2.1°
Maximum altitude 02:53:12 43° 343° (NNW) 897 ? -2.9°
Drops below altitude 10° 02:57:40 10° 56° (NE) 2,031 ? -3.6°
Sets 03:00:07 0° 63° (ENE) 2,943 ? -4.0°
